#timestamp,LO_Frequency,Hit,StdDev 
1513159215.8,286046996.2,N
1513159235.6,286046992.5,Y
1513159255.5,286046997.0,P
1513159275.3,286047000.5,N
1513159295.2,286046998.7,N
1513159315.9,286046996.9,N
1513159335.7,286046998.0,N
1513159355.6,286046996.8,N
1513159375.4,286046994.9,Y
1513159395.3,286047001.0,P
1513159415.1,286046999.9,N
1513159416.0,286046999.9,N
1513159435.8,286047000.2,N
1513159455.7,286047000.6,N
1513159475.5,286046999.5,N
1513159495.3,286046997.1,N
1513159515.2,286046999.5,N
1513159535.0,286047000.5,N
1513159535.9,286047000.5,N
1513159555.8,286047000.7,N
1513159575.6,286046999.0,N
1513159595.4,286046997.8,N
1513159615.3,286046998.0,N
1513159635.1,286046993.7,Y
1513159655.9,286046996.4,P
1513159675.7,286046993.8,P
1513159695.5,286046996.2,N
1513159715.4,286046997.2,N
1513159735.2,286046996.0,N
1513159755.1,286046993.4,Y
1513159756.0,286046993.4,P
1513159775.8,286046998.6,N
1513159795.6,286047001.3,N
1513159815.5,286047001.7,N
1513159835.3,286047000.6,N
1513159855.1,286047002.3,N
1513159875.9,286046998.2,N
1513159895.7,286046998.1,N
1513159915.6,286046998.2,N
1513159935.4,286046999.1,N
1513159955.2,286046995.1,N
1513159975.1,286046995.1,N
1513159976.0,286046995.1,N
1513159995.8,286046995.2,N
1513160015.7,286046995.5,N
1513160035.5,286046998.0,N
1513160055.3,286046997.4,N
1513160075.2,286046999.5,N
1513160095.0,286046997.4,N
1513160095.9,286046997.4,N
1513160115.7,286046995.6,N
1513160135.6,286046994.9,N
1513160155.4,286046995.5,N
1513160175.3,286046995.1,N
1513160195.1,286046994.8,N
1513160215.8,286046995.9,N
1513160235.7,286046994.9,N
1513160255.5,286046993.8,N
1513160275.4,286046996.0,N
1513160295.2,286046994.5,N
1513160315.0,286046994.8,N
1513160315.9,286046994.8,N
1513160335.8,286046993.2,N
1513160355.6,286046993.1,Y
1513160375.4,286046993.3,P
1513160395.3,286046993.7,P
1513160415.1,286046993.7,P
1513160435.9,286046996.3,N
1513160455.7,286046993.8,Y
1513160475.5,286047000.9,P
1513160495.4,286047000.2,N
1513160515.2,286047002.6,N
1513160535.1,286047000.9,N
1513160536.0,286047000.9,N
1513160555.8,286046999.9,N
1513160575.6,286046999.3,N
1513160595.5,286046999.7,N
1513160615.3,286047003.8,N
1513160635.2,286047003.3,N
1513160655.9,286047003.9,N
1513160675.7,286047003.3,N
1513160695.6,286047003.7,N
1513160715.4,286047002.4,N
1513160735.2,286046998.3,N
1513160755.1,286046999.1,N
1513160756.0,286046999.1,N
1513160775.8,286046996.7,N
1513160795.7,286046997.7,N
1513160815.5,286046998.4,N
1513160835.3,286046997.2,N
1513160855.2,286046996.0,N
1513160875.0,286046995.7,N
1513160875.9,286046995.7,N
1513160895.7,286046997.4,N
1513160915.6,286046997.8,N
1513160935.4,286046997.5,N
1513160955.3,286046996.8,N
1513160975.1,286046999.6,N
1513160976.0,286046999.6,N
1513160995.8,286046999.1,N
1513161015.7,286046997.0,N
1513161035.5,286046995.3,N
1513161055.3,286046997.2,N
1513161075.2,286046998.9,N
1513161095.0,286046999.0,N
1513161095.9,286046999.0,N
1513161115.8,286046999.4,N
1513161135.6,286046999.6,N
1513161155.4,286046997.4,N
1513161175.3,286046997.1,N
1513161195.1,286046994.9,N
1513161215.9,286046995.1,N
1513161235.7,286046996.4,N
1513161255.5,286046999.5,N
1513161275.4,286046997.2,N
1513161295.2,286046996.0,N
1513161315.0,286046993.8,Y
1513161315.9,286046993.8,P
1513161335.8,286046995.4,N
1513161355.6,286046995.1,P
1513161375.5,286046996.0,Y
1513161395.3,286046998.2,P
1513161415.1,286047002.2,N
1513161435.9,286047005.9,N
1513161455.7,286047006.9,N
1513161475.6,286047007.5,N
1513161495.4,286047010.6,N
1513161515.2,286047008.3,N
1513161535.1,286047004.8,N
1513161536.0,286047004.8,N
1513161555.8,286047005.2,N
1513161575.7,286047003.8,N
1513161595.5,286047002.1,N
1513161645.4,286047000.5,E
1513161655.3,286047000.6,N
1513161675.1,286046999.2,P
1513161695.9,286046999.2,N
1513161715.7,286046998.1,N
1513161735.5,286047001.2,N
1513161755.4,286047000.5,N
1513161775.2,286047006.0,Y
1513161795.0,286047002.7,P
1513161796.0,286047002.7,N
1513161815.8,286047001.0,N
1513161835.6,286046998.3,N
1513161855.5,286047002.3,N
1513161875.3,286047002.6,N
1513161895.1,286047000.8,N
1513161915.9,286046998.7,N
1513161935.7,286046997.1,N
1513161955.6,286046996.8,N
1513161975.4,286046998.9,N
1513161995.2,286046999.1,N
1513162015.1,286046997.6,N
1513162016.0,286046997.6,N
1513162035.8,286046997.6,N
1513162055.7,286046998.4,N
1513162075.5,286046999.1,N
1513162095.3,286047001.9,N
1513162115.2,286047005.5,N
1513162135.0,286047005.9,N
1513162135.9,286047005.9,N
1513162155.8,286047003.3,N
1513162175.6,286047003.5,N
1513162195.4,286047001.9,N
1513162215.3,286047000.6,N
1513162235.1,286047004.3,N
1513162255.8,286047003.6,N
1513162275.7,286047006.3,N
1513162295.5,286047005.4,N
1513162315.4,286047002.7,N
1513162335.2,286047000.6,N
1513162355.0,286046999.3,N
1513162355.9,286046999.3,N
1513162375.8,286046999.3,N
1513162395.6,286046999.1,N
1513162415.5,286046999.3,N
1513162435.3,286046998.6,N
1513162455.1,286047002.3,N
1513162475.9,286047005.5,N
1513162495.7,286046999.9,N
1513162515.5,286047000.6,N
1513162535.4,286047000.6,N
1513162555.2,286047000.1,N
1513162575.1,286047001.4,N
1513162576.0,286047001.4,N
1513162595.8,286047004.0,N
1513162615.6,286046998.3,N
1513162635.5,286046999.5,N
1513162655.3,286046997.8,N
1513162675.2,286046999.4,N
1513162695.9,286046999.8,N
1513162715.7,286046998.7,N
1513162735.6,286046995.8,N
1513162755.4,286046992.2,Y
1513162775.3,286046994.0,P
1513162795.1,286046997.6,N
1513162796.0,286046997.6,N
